Sumter, SC

6:46 PM EDT on May 24, 2017 (GMT -0400)
Sumter Municipal

Weather History for KSMS - April, 2013

Change the Weather History Date:

Monday, April 29, 2013

  Actual Average Record
Temperature  
Mean Temperature 66 °F -  
Max Temperature 73 °F 79 °F 89 °F (2017)
Min Temperature 60 °F 52 °F 48 °F (2011)
Cooling Degree Days 2    
Growing Degree Days 16 (Base 50)    
Moisture  
Dew Point 64 °F    
Average Humidity 91    
Maximum Humidity 100    
Minimum Humidity 61    
Precipitation  
Precipitation 1.12 in - - ()
Sea Level Pressure  
Sea Level Pressure 30.02 in    
Wind  
Wind Speed 2 mph (South)    
Max Wind Speed 8 mph    
Max Gust Speed -    
Visibility 8 miles    
Events Rain , Thunderstorm    
Averages and records for this station are not official NWS values.
T = Trace of Precipitation, MM = Missing Value Source: NWS Daily Summary

Daily Weather History Graph

Daily Weather History Graph

Search for Another Location

Airport or City:

Trip Planner

Search our weather history database for the weather conditions in past years. The results will help you decide how hot, cold, wet, or windy it might be!

Date:

Astronomy

Apr. 29, 2013 Rise Set
Actual Time 6:34 AM EDT 8:03 PM EDT
Civil Twilight 6:07 AM EDT 8:30 PM EDT
Nautical Twilight 5:35 AM EDT 9:02 PM EDT
Astronomical Twilight 5:02 AM EDT 9:35 PM EDT
Moon No Moon Rise 9:57 AM EDT (4/29)
Length of Visible Light 14h 22m
Length of Day
13h 29m
Waning Gibbous, 80% of the Moon is Illuminated
Apr 29
Waning Gibbous
May 2
Last Quarter
May 9
New
May 18
First Quarter
May 25
Full

Hourly Weather History & Observations

Time (EDT) Temp. Dew Point Humidity Pressure Visibility Wind Dir Wind Speed Gust Speed Precip Events Conditions
12:15 AM 62.6 °F 62.6 °F 100% 30.08 in 4.0 mi SSE 3.5 mph - 0.01 in Rain Light Rain
12:35 AM 62.6 °F 62.6 °F 100% 30.07 in 5.0 mi Calm Calm - 0.02 in Rain Light Rain
12:55 AM 62.6 °F 62.6 °F 100% 30.06 in 6.0 mi Calm Calm - 0.02 in Rain Light Rain
1:15 AM 62.6 °F 62.6 °F 100% 30.06 in 5.0 mi Calm Calm - N/A Rain Light Rain
1:35 AM 62.6 °F 62.6 °F 100% 30.07 in 5.0 mi Calm Calm - N/A   Mostly Cloudy
1:55 AM 62.6 °F 62.6 °F 100% 30.07 in 3.0 mi Calm Calm - 0.02 in Rain Light Rain
2:15 AM 62.6 °F 62.6 °F 100% 30.06 in 2.5 mi Calm Calm - 0.10 in Rain Rain
2:35 AM 62.6 °F 62.6 °F 100% 30.05 in 2.5 mi Calm Calm - 0.23 in Rain Rain
2:55 AM 62.6 °F 62.6 °F 100% 30.05 in 2.0 mi Calm Calm - 0.37 in Rain Heavy Rain
3:15 AM 62.6 °F 62.6 °F 100% 30.04 in 2.0 mi Calm Calm - 0.16 in Rain Heavy Rain
3:35 AM 62.6 °F 62.6 °F 100% 30.05 in 3.0 mi WSW 4.6 mph - 0.30 in Rain Rain
3:55 AM 62.6 °F 62.6 °F 100% 30.04 in 5.0 mi Calm Calm - 0.42 in Rain Light Rain
4:15 AM 62.6 °F 62.6 °F 100% 30.03 in 10.0 mi Calm Calm - N/A   Overcast
4:35 AM 62.6 °F 62.6 °F 100% 30.04 in 10.0 mi Calm Calm - N/A   Mostly Cloudy
4:55 AM 62.6 °F 62.6 °F 100% 30.04 in 5.0 mi Calm Calm - N/A Rain Light Rain
5:15 AM 62.6 °F 62.6 °F 100% 30.03 in 5.0 mi Calm Calm - 0.03 in Rain Rain
5:35 AM 62.6 °F 62.6 °F 100% 30.04 in 5.0 mi Calm Calm - 0.11 in Rain Heavy Rain
5:55 AM 62.6 °F 62.6 °F 100% 30.04 in 3.0 mi Calm Calm - 0.23 in Rain Heavy Rain
6:15 AM 62.6 °F 62.6 °F 100% 30.02 in 5.0 mi Calm Calm - 0.05 in Rain Heavy Rain
6:35 AM 62.6 °F 62.6 °F 100% 30.03 in 7.0 mi Calm Calm - 0.06 in Rain Light Rain
6:55 AM 60.8 °F 60.8 °F 100% 30.03 in 5.0 mi SSE 3.5 mph - 0.06 in   Overcast
7:15 AM 62.6 °F 62.6 °F 100% 30.04 in 8.0 mi South 4.6 mph - N/A   Overcast
7:35 AM 62.6 °F 62.6 °F 100% 30.04 in 10.0 mi Calm Calm - N/A   Mostly Cloudy
7:55 AM 62.6 °F 62.6 °F 100% 30.04 in 10.0 mi Calm Calm - N/A   Mostly Cloudy
8:15 AM 62.6 °F 62.6 °F 100% 30.04 in 10.0 mi Calm Calm - N/A   Partly Cloudy
8:35 AM 62.6 °F 62.6 °F 100% 30.04 in 10.0 mi Calm Calm - N/A   Clear
8:55 AM 64.4 °F 64.4 °F 100% 30.05 in 10.0 mi Calm Calm - N/A   Clear
9:15 AM 64.4 °F 64.4 °F 100% 30.04 in 10.0 mi Calm Calm - N/A   Clear
9:35 AM 66.2 °F 66.2 °F 100% 30.04 in 10.0 mi Calm Calm - N/A   Clear
9:55 AM 66.2 °F 66.2 °F 100% 30.04 in 10.0 mi Calm Calm - N/A   Clear
10:15 AM 68.0 °F 64.4 °F 88% 30.04 in 10.0 mi Calm Calm - N/A   Clear
10:35 AM 71.6 °F 64.4 °F 78% 30.04 in 10.0 mi WSW 4.6 mph - N/A   Partly Cloudy
10:55 AM 71.6 °F 64.4 °F 78% 30.04 in 10.0 mi SW 5.8 mph - N/A   Partly Cloudy
11:15 AM 69.8 °F 66.2 °F 88% 30.05 in 10.0 mi Calm Calm - N/A   Scattered Clouds
11:35 AM 69.8 °F 66.2 °F 88% 30.05 in 10.0 mi Calm Calm - N/A   Partly Cloudy
11:55 AM 71.6 °F 64.4 °F 78% 30.05 in 10.0 mi WSW 3.5 mph - N/A   Scattered Clouds
12:15 PM 71.6 °F 64.4 °F 78% 30.05 in 10.0 mi WSW 4.6 mph - N/A   Mostly Cloudy
12:35 PM 71.6 °F 64.4 °F 78% 30.04 in 10.0 mi WSW 3.5 mph - N/A   Overcast
12:55 PM 71.6 °F 64.4 °F 78% 30.04 in 10.0 mi WSW 3.5 mph - N/A   Mostly Cloudy
1:15 PM 73.4 °F 64.4 °F 73% 30.03 in 10.0 mi West 3.5 mph - N/A   Scattered Clouds
1:35 PM 71.6 °F 64.4 °F 78% 30.03 in 10.0 mi Calm Calm - N/A   Clear
1:55 PM 71.6 °F 64.4 °F 78% 30.02 in 10.0 mi Calm Calm - N/A Thunderstorm Partly Cloudy
2:15 PM 71.6 °F 64.4 °F 78% 30.01 in 10.0 mi NNW 3.5 mph - N/A Thunderstorm Mostly Cloudy
2:35 PM 73.4 °F 64.4 °F 73% 30.01 in 10.0 mi NNE 5.8 mph - N/A   Mostly Cloudy
2:55 PM 73.4 °F 64.4 °F 73% 30.00 in 10.0 mi Calm Calm - N/A   Scattered Clouds
3:15 PM 73.4 °F 64.4 °F 73% 30.00 in 10.0 mi NNW 5.8 mph - N/A Rain Light Rain
3:35 PM 73.4 °F 64.4 °F 73% 29.99 in 10.0 mi Calm Calm - N/A   Clear
3:55 PM 73.4 °F 62.6 °F 69% 29.98 in 10.0 mi North 3.5 mph - N/A   Clear
4:15 PM 73.4 °F 64.4 °F 73% 29.97 in 10.0 mi Calm Calm - N/A Thunderstorm Clear
4:35 PM 73.4 °F 64.4 °F 73% 29.97 in 10.0 mi North 5.8 mph - N/A   Mostly Cloudy
4:55 PM 73.4 °F 62.6 °F 69% 29.97 in 10.0 mi North 6.9 mph - N/A   Mostly Cloudy
5:15 PM 73.4 °F 62.6 °F 69% 29.96 in 10.0 mi North 5.8 mph - N/A   Partly Cloudy
5:35 PM 73.4 °F 62.6 °F 69% 29.97 in 10.0 mi Calm Calm - N/A   Clear
5:55 PM 73.4 °F 59.0 °F 61% 29.97 in 10.0 mi Calm Calm - N/A   Clear
6:15 PM 73.4 °F 59.0 °F 61% 29.98 in 10.0 mi Calm Calm - N/A   Clear
6:35 PM 69.8 °F 66.2 °F 88% 29.98 in 10.0 mi SE 5.8 mph - N/A   Partly Cloudy
6:55 PM 69.8 °F 66.2 °F 88% 29.98 in 10.0 mi SE 8.1 mph - N/A   Clear
7:15 PM 68.0 °F 66.2 °F 94% 29.98 in 10.0 mi SE 8.1 mph - N/A   Clear
7:35 PM 68.0 °F 66.2 °F 94% 29.99 in 10.0 mi SE 6.9 mph - N/A   Clear
7:55 PM 66.2 °F 66.2 °F 100% 29.99 in 10.0 mi South 8.1 mph - N/A   Scattered Clouds
8:15 PM 64.4 °F 64.4 °F 100% 29.98 in 10.0 mi ESE 3.5 mph - N/A   Scattered Clouds
8:35 PM 64.4 °F 64.4 °F 100% 29.99 in 10.0 mi SSE 5.8 mph - N/A   Clear
8:55 PM 64.4 °F 64.4 °F 100% 30.00 in 10.0 mi SSE 5.8 mph - N/A   Scattered Clouds
9:15 PM 64.4 °F 64.4 °F 100% 30.01 in 8.0 mi SE 4.6 mph - N/A   Overcast
9:35 PM 64.4 °F 64.4 °F 100% 30.01 in 7.0 mi SSE 5.8 mph - N/A   Overcast
9:55 PM 64.4 °F 64.4 °F 100% 30.01 in 7.0 mi SSE 5.8 mph - N/A   Overcast
10:15 PM 64.4 °F 64.4 °F 100% 30.02 in 8.0 mi SSE 4.6 mph - N/A   Overcast
10:35 PM 64.4 °F 64.4 °F 100% 30.02 in 10.0 mi Calm Calm - N/A   Overcast
10:55 PM 64.4 °F 64.4 °F 100% 30.02 in 7.0 mi Calm Calm - N/A   Scattered Clouds
11:35 PM 62.6 °F 62.6 °F 100% 30.01 in 1.5 mi Calm Calm - N/A   Clear
11:55 PM 62.6 °F 62.6 °F 100% 30.01 in 1.8 mi Calm Calm - N/A   Clear